Location: Gro�sch�nbrunn
(49.5760°N, 11.8868°E)
Time: 12:20:33
(UTC+00:00)

NOSS 2-2 (E) - Pass Details

Date: 18 September 2020
Orbit: 468 x 1739 km, 63.3° (Epoch: 22 October)

Event Time Altitude Azimuth Distance (km) Brightness Sun altitude
Rises 19:12:41 0° 231° (SW) 2,497 7.0 -18.7°
Reaches altitude 10° 19:14:42 10° 235° (SW) 1,642 6.1 -19.0°
Maximum altitude 19:18:13 61° 317° (NW) 585 3.6 -19.5°
Drops below altitude 10° 19:22:21 10° 39° (NE) 1,933 6.0 -20.1°
Sets 19:24:54 0° 42° (NE) 2,999 6.9 -20.4°
